Regional Weather Roundup
Issued by NWS

Home | Current Version | Previous Version | Graphics & Text | Print | Product List | Glossary On
Versions: 1 2 3 4 5 6 7 8 9 10 11 12 13 14 15 16 17 18 19 20 21 22 23 24 25 26 27 28 29 30 31 32 33 34 35 36 37 38 39 40 41 42 43 44 45 46 47 48 49 50
000
ASUS43 KMPX 251501
RWRMN
WEATHER ROUNDUP FOR MINNESOTA
NATIONAL WEATHER SERVICE TWIN CITIES/CHANHASSEN MN
1000 AM CDT WED APR 25 2018


NOTE: "FAIR" INDICATES FEW OR NO CLOUDS BELOW 12,000 FEET WITH NO
SIGNIFICANT WEATHER AND/OR OBSTRUCTIONS TO VISIBILITY. N/A MEANS
CURRENT SKY AND/OR WEATHER CONDITIONS ARE NOT AVAILABLE.

MNZ060>063-068>070-251600-
   Twin Cities Metro

CITY           SKY/WX    TMP DP  RH WIND       PRES   REMARKS
TWIN CITIES    FAIR      45  27  49 E5        30.25S
ST PAUL        FAIR      45  26  47 CALM      30.26F
CRYSTAL        FAIR      44  23  43 VRB3      30.24S
BLAINE         SUNNY     45  27  49 NE5       30.24F
LAKEVILLE      FAIR      41  28  60 E3        30.24F
EDEN PRAIRIE   FAIR      45  26  47 VRB5      30.24S
SOUTH ST PAUL  FAIR      44  26  48 NW3       30.24F
LAKE ELMO      FAIR      43  28  56 CALM      30.25S
$$
MNZ001>005-007-008-013>017-022>024-027-028-251600-
   Northwest Minnesota

CITY           SKY/WX    TMP DP  RH WIND       PRES   REMARKS
BEMIDJI        FAIR      45  24  43 SW9       30.18F
HALLOCK        FAIR      54  34  47 S16       30.07F
ROSEAU         FAIR      50  34  53 S21       30.08F
WARROAD        FAIR      48  32  53 SW17G24   30.09F
THIEF RVR FALL FAIR      47  31  53 S22G28    30.14F
CROOKSTON      FAIR      46  36  66 S18       30.15F
FOSSTON        FAIR      43  27  52 S18       30.18F
DETROIT LAKES  FAIR      43  28  56 S8        30.22F
MOORHEAD       FAIR      46  32  57 S14       30.22F
PARK RAPIDS    FAIR      45  25  45 SW10      30.21F
MAHNOMEN       FAIR      41  29  61 S16       30.21F
$$
MNZ006-009>011-018-025>026-251600-
   North Central Minnesota

CITY           SKY/WX    TMP DP  RH WIND       PRES   REMARKS
BAUDETTE       FAIR      47  27  45 S13       30.12F
FLAG ISLAND    FAIR      36  28  75 S14       30.06F
INTL FALLS     FAIR      46  24  42 S12       30.16F
WASKISH        CLOUDY    48  27  43 SW12G17   30.16F
BIG FORK       FAIR      45  27  49 SW10      30.18F
LONGVILLE      FAIR      43  21  42 SW7       30.21F
GRAND RAPIDS   FAIR      42  21  43 S7        30.22F
CRANE LAKE     FAIR      39  21  48 S5        30.21F
ORR            FAIR     N/A N/A N/A S3          N/A
COOK           FAIR      43  21  42 SW6       30.19F
WALKER         FAIR      43  23  44 SW8       30.20F
$$
MNZ012-019>021-037-251600-
   Northeast Minnesota

CITY           SKY/WX    TMP DP  RH WIND       PRES   REMARKS
DULUTH         FAIR      41  25  53 CALM      30.20F
ELY            FAIR      39  21  48 CALM      30.19F
HIBBING        FAIR      41  22  46 VRB5      30.19F
EVELETH        FAIR      40  22  48 W3        30.21F
DULUTH HARBOR  FAIR      37  25  60 CALM      30.25F
TWO HARBORS    FAIR      46  30  53 SE6       30.20F
SILVER BAY     FAIR      43  23  45 S3        30.19F
GRAND MARAIS     N/A     38  28  67 SW5       30.22F
G MARAIS ARPRT FAIR      37  18  44 CALM      30.18S
$$
MNZ029>031-032-039>041-046>048-054>057-064-251600-
   West Central Minnesota

CITY           SKY/WX    TMP DP  RH WIND       PRES   REMARKS
FERGUS FALLS   FAIR      45  27  49 S10       30.22F
WHEATON        SUNNY     45  28  53 S10       30.27F
MORRIS         SUNNY     43  28  56 SW7       30.25F
ALEXANDRIA     FAIR      44  24  45 SW7       30.25F
ELBOW LAKE     FAIR      42  28  58 W9        30.26F
WADENA         FAIR      43  27  52 SW7       30.23F
GLENWOOD       FAIR      43  25  49 SW3       30.25F
APPLETON       SUNNY     45  27  49 SW5       30.27S
BENSON         SUNNY     43  23  45 W5        30.28F
ORTONVILLE     SUNNY     45  28  53 S5        30.26F
WILLMAR        FAIR      41  27  56 CALM      30.29S
$$
MNZ033>034-036-042>043-049>051-058-059-251600-
   Central Minnesota

CITY           SKY/WX    TMP DP  RH WIND       PRES   REMARKS
ST CLOUD       FAIR      42  25  50 S3        30.25S
SAUK CENTRE    FAIR      41  25  52 SW3       30.26S
PAYNESVILLE    FAIR      43  27  53 CALM      30.25F
AITKIN         FAIR      41  21  45 CALM      30.21F
PINE RIVER     FAIR      41  23  48 SW6       30.24F
BRAINERD       FAIR      43  22  43 S6        30.23F
STAPLES        FAIR      43  21  42 S6        30.23F
LONG PRAIRIE   FAIR      41  25  52 S5        30.25F
LITTLE FALLS   FAIR      41  16  36 CALM      30.25S
LITCHFIELD     FAIR      43  27  52 CALM      30.26F
BUFFALO        FAIR      42  26  52 NE5       30.26S
MAPLE LAKE     FAIR      43  29  57 CALM      30.26S
HUTCHINSON     FAIR      43  29  58 SE3       30.27S
$$
MNZ037-044-045-052-053-251600-
   East Central Minnesota

CITY           SKY/WX    TMP DP  RH WIND       PRES   REMARKS
PRINCETON      FAIR      45  25  45 CALM      30.25S
MORA           FAIR      41  23  48 CALM      30.25F
CAMBRIDGE      FAIR      45  27  49 N3        30.24F
RUSH CITY      FAIR      41  24  52 CALM      30.24F
MOOSE LAKE     FAIR      41  23  48 CALM      30.21F
HINCKLEY       FAIR      41  27  56 CALM      30.23F
CLOQUET        FAIR      39  21  48 CALM      30.21F
MCGREGOR       FAIR      41  25  52 CALM      30.22F
$$
MNZ071>073-080-081-089-090-097-098-251600-
   Southwest Minnesota

CITY           SKY/WX    TMP DP  RH WIND       PRES   REMARKS
MONTEVIDEO     SUNNY     48  37  66 W3        30.28S
GRANITE FALLS  SUNNY     42  31  65 SW3       30.29F
CANBY          SUNNY     44  30  58 W7        30.28F
MARSHALL       SUNNY     41  29  62 W5        30.28F
REDWOOD FALLS  SUNNY     42  27  55 CALM      30.26F
OLIVIA         SUNNY     41  30  65 CALM      30.26S
PIPESTONE      SUNNY    N/A N/A N/A CALM      30.25F
WINDOM         SUNNY     43  23  45 N3        30.26S
WORTHINGTON    SUNNY     41  31  67 N6        30.26F
JACKSON        SUNNY     41  32  70 N6        30.25F
TRACY          SUNNY     41  31  68 CALM      30.26F
SLAYTON        SUNNY     39  31  74 N3        30.27F
$$
MNZ065>067-074>077-082>085-091>093-251600-
   South Central Minnesota

CITY           SKY/WX    TMP DP  RH WIND       PRES   REMARKS
MANKATO        FAIR      42  28  57 N3        30.26S
NEW ULM        SUNNY     43  27  52 N3        30.26S
ST JAMES       SUNNY     39  32  75 NW3       30.27F
FAIRMONT       SUNNY     41  32  70 N8        30.26F
GLENCOE        FAIR      44  31  61 CALM      30.25F
OWATONNA       FAIR      43  30  61 CALM      30.24S
WASECA         FAIR      43  30  61 CALM      30.25F
ALBERT LEA     FAIR      45  30  57 NE5       30.23F
$$
MNZ078>079-086>088-094>096-251600-
   Southeast Minnesota

CITY           SKY/WX    TMP DP  RH WIND       PRES   REMARKS
ROCHESTER      FAIR      46  32  58 N5        30.22S
RED WING       FAIR      45  25  45 S3        30.23F
STANTON        FAIR      44  31  60 N3        30.23S
DODGE CENTER   FAIR      45  28  53 E3        30.22F
WINONA         FAIR      46  32  57 N3        30.21S
AUSTIN         FAIR      45  34  65 NE5       30.21F
PRESTON        FAIR      44  32  64 CALM      30.21F
$$
ABBREVIATIONS USED IN REMARKS
   TC - TEMPERATURES IN CELSIUS
  WCI - WIND CHILL INDEX
   HX - HEAT INDEX
  VSB - VISIBILITY
$$




USA.gov is the U.S. government's official web portal to all federal, state and local government web resources and services.